Tracking 29892 objects as of 21-Nov-2024
HD Live streaming from Space Station
objects crossing your sky now

CZ-3C DEB

Track CZ-3C DEB now!


NORAD ID: 40206
Int'l Code: 2012-008R
Perigee: 582.4 km
Apogee: 36,816.5 km
Inclination: 17.4 °
Period: 658.4 minutes
Semi major axis: 25070 km
RCS: Unknown
Launch date: February 24, 2012
Source: People's Republic of China (PRC)
Launch site: Xichang Space Center, China (XSC)

Note: This is SATELLITE DEBRIS
Your satellite tracking list
Your tracking list is empty




NASA's NSSDC Master Catalog

Two Line Element Set (TLE):
1 40206U 12008R   24324.21061421  .00000021  00000-0  94641-3 0  9995
2 40206  17.4036 206.2878 7226463 307.1045   6.8168  2.18705891 81254
Source of the keplerian elements: AFSPC